カタログに戻る

DELTA 1 DEB

運用中LEO
NORAD 10183·DEBRIS·🇺🇸 United States

打ち上げ Jul 14, 1977 から Cape Canaveral Space Force Station

Loading…

次のパス (今後24時間)

TLE

最新Source: Space-Track

元期: Sep 14, 2026, 07:58 UTC

1 10183U 77065M   26257.33242077  .00002272  00000-0  52590-3 0  9995
2 10183  29.2103   1.9399 0459656 102.9236 262.3070 14.03505872423151

AllMySatでDELTA 1 DEBをリアルタイム追跡

Download on the App Store